Voltar ao catálogo

STARLINK-30254

AtivoComunicaçõesVLEO
NORAD 57533·PAYLOAD·🇺🇸 United States

Lançado Aug 8, 2023 de Vandenberg Space Force Base

Loading…

Próximas Passagens (próximas 24 horas)

TLE

AtualizadoSource: CelesTrak SupGP

Época: Sep 14, 2026, 22:26 UTC

1 57533C 23115N   26257.93520833 -.00026235  00000+0 -95046-3 0  2573
2 57533  43.0007 114.4050 0001387 273.5749  50.8570 15.27583644    11

Acompanhe STARLINK-30254 em tempo real com AllMySat

Download on the App Store